Location: Morehouse Lake Observatory
(43.3628°N, 74.6770°W)
Time: 09:37:45
(UTC-05:00)

Envisat - Pass Details

Date: 30 October 2019
Orbit: 764 x 766 km, 98.1° (Epoch: 22 November)

Event Time Altitude Azimuth Distance (km) Brightness Sun altitude
Rises 18:57:45 0° 165° (SSE) 3,218 6.2 -12.3°
Reaches altitude 10° 19:00:03 10° 166° (SSE) 2,295 5.4 -12.7°
Maximum altitude 19:05:07 89° 257° (WSW) 772 3.0 -13.6°
Drops below altitude 10° 19:10:14 10° 347° (NNW) 2,311 5.6 -14.5°
Sets 19:12:32 0° 347° (NNW) 3,241 6.3 -14.9°
